Home   Weather   Charlottesville   Past weeks
Flag for USA

Past Weather in Charlottesville, Virginia, USA — Yesterday and Last 2 Weeks

Now
51 °F

Fog.


Feels Like: 49 °F
Forecast: 68 / 45 °F
Wind: 7 mph from Southwest

Location: Charlottesville-Albemarle Airport

Current Time: Oct 23, 2019 at 4:16:32 am

Latest Report: Oct 23, 2019 at 3:43 am


Visibility: 1 mi

Pressure: 29.93 "Hg

Humidity: 89%

Dew Point: 48 °F

Location of CharlottesvilleLocation

Past Weather in Charlottesville — Graph

°F

Charlottesville Temperature Yesterday

Maximum temperature yesterday: 62 °F (at 4:53 pm)
Minimum temperature yesterday: 56 °F (at 12:01 am)
Average temperature yesterday: 58 °F

High & Low Weather Summary for the Past Weeks

 TemperatureHumidityPressure
High79 °F (Oct 14, 3:53 pm)93% (Oct 16, 12:00 pm)30.27 "Hg (Oct 16, 12:00 pm)
Low37 °F (Oct 19, 5:53 am)19% (Oct 14, 4:53 pm)29.56 "Hg (Oct 16, 3:53 pm)
Average58 °F67%30.00 "Hg
* Reported Oct 8 2:53 am — Oct 23 2:53 am, Charlottesville. Weather by CustomWeather, © 2019

Note: Actual official high and low records may vary slightly from our data, if they occured in-between our weather recording intervals... More about our weather records

Advertising

Charlottesville Weather History for the Previous 24 Hours

Scroll right to see more
 ConditionsComfort  
Time TempWeatherWind HumidityBarometerVisibility
2:53 am
Wed, Oct 23
54 °FFog.No wind90%29.92 "Hg0 mi
1:53 am55 °FFog.No wind90%29.89 "Hg0 mi
12:53 am57 °FFog.No wind90%29.88 "Hg0 mi
11:53 pm
Tue, Oct 22
58 °FFog.3 mph90%29.88 "Hg0 mi
10:53 pm58 °FFog.No wind90%29.88 "Hg0 mi
9:53 pm59 °FFog.No wind90%29.88 "Hg1 mi
8:53 pm60 °FLow clouds.3 mph86%29.87 "Hg10 mi
7:53 pm61 °FLow clouds.No wind87%29.85 "Hg10 mi
6:53 pm61 °FLow clouds.No wind87%29.83 "Hg10 mi
5:53 pm62 °FLow clouds.3 mph86%29.79 "Hg10 mi
4:53 pm62 °FLight rain. Low clouds.6 mph86%29.78 "Hg10 mi
4:31 pm61 °FCloudy.7 mph87%29.79 "Hg10 mi
3:53 pm61 °FLight rain. Fog.No wind87%29.80 "Hg3 mi
3:18 pm60 °FHeavy rain. Fog.3 mph90%29.82 "Hg1 mi
2:53 pm60 °FLight rain. Fog.6 mph90%29.79 "Hg2 mi
2:19 pm60 °FFog.5 mph90%29.81 "Hg2 mi
1:59 pm60 °FLight rain. Fog.3 mph90%29.81 "Hg3 mi
1:19 pm60 °FRain. Fog.3 mph90%29.83 "Hg2 mi
12:53 pm60 °FRain. Fog.No wind90%29.85 "Hg1 mi
11:53 am59 °FLight rain. Fog.6 mph90%29.88 "Hg1 mi
10:53 am58 °FFog.5 mph90%29.91 "Hg1 mi
10:35 am58 °FFog.3 mph90%29.94 "Hg1 mi
9:53 am57 °FFog.5 mph90%29.93 "Hg1 mi
9:42 am57 °FFog.3 mph93%29.95 "Hg1 mi
9:26 am57 °FFog.5 mph90%29.95 "Hg1 mi
9:17 am57 °FFog.5 mph90%29.96 "Hg1 mi
8:53 am57 °FFog.3 mph90%29.96 "Hg1 mi
8:09 am56 °FFog.6 mph90%29.95 "Hg1 mi
7:53 am56 °FFog.5 mph90%29.95 "Hg1 mi
6:53 am56 °FLight rain. Fog.No wind90%29.99 "Hg1 mi
5:53 am56 °FFog.No wind93%29.98 "Hg0 mi
4:53 am56 °FFog.3 mph90%29.98 "Hg1 mi
4:31 am56 °FLow clouds.No wind87%29.99 "Hg8 mi
Weather by CustomWeather, © 2019

See weather overview